Time,TemperatureF,DewpointF,PressureIn,WindDirection,WindDirectionDegrees,WindSpeedMPH,WindSpeedGustMPH,Humidity,HourlyPrecipIn,Conditions,Clouds,dailyrainin,SoftwareType,DateUTC
2013-07-03 00:00:00,69.1,60.8,30.30,NNE,21,0.0,0.0,75,-99.99,,,0.00,VWS V14.01,2013-07-03 04:00:00,
2013-07-03 00:30:00,69.1,60.8,30.33,NE,38,0.0,0.0,75,-99.99,,,0.00,VWS V14.01,2013-07-03 04:30:00,
2013-07-03 01:00:00,68.7,60.9,30.33,SW,224,0.0,5.4,76,-99.99,,,0.00,VWS V14.01,2013-07-03 05:00:00,
2013-07-03 02:00:00,68.2,61.4,30.30,NE,42,0.0,3.1,79,-99.99,,,0.00,VWS V14.01,2013-07-03 06:00:00,
2013-07-03 02:30:00,68.0,61.6,30.30,NE,52,0.0,3.6,80,-99.99,,,0.00,VWS V14.01,2013-07-03 06:30:00,
2013-07-03 03:00:00,67.8,61.4,30.30,WSW,253,0.0,3.1,80,-99.99,,,0.00,VWS V14.01,2013-07-03 07:00:00,
2013-07-03 03:30:00,67.6,61.3,30.30,NNE,17,0.0,2.7,80,-99.99,,,0.00,VWS V14.01,2013-07-03 07:30:00,
2013-07-03 05:00:00,67.6,61.3,30.30,ESE,119,0.0,2.7,80,-99.99,,,0.00,VWS V14.01,2013-07-03 09:00:00,
2013-07-03 05:30:00,67.6,61.3,30.33,SSE,153,0.0,2.7,80,-99.99,,,0.00,VWS V14.01,2013-07-03 09:30:00,
2013-07-03 06:30:00,67.5,61.1,30.33,WSW,243,0.0,0.0,80,-99.99,,,0.00,VWS V14.01,2013-07-03 10:30:00,
2013-07-03 07:30:00,67.6,61.6,30.33,NE,49,0.0,5.4,81,-99.99,,,0.00,VWS V14.01,2013-07-03 11:30:00,
2013-07-03 08:30:00,68.4,62.3,30.36,South,180,0.0,3.1,81,-99.99,,,0.00,VWS V14.01,2013-07-03 12:30:00,
2013-07-03 09:00:00,68.7,62.7,30.36,NE,43,0.0,0.0,81,-99.99,,,0.00,VWS V14.01,2013-07-03 13:00:00,
2013-07-03 09:30:00,69.8,63.4,30.36,SE,138,0.0,4.0,80,-99.99,,,0.00,VWS V14.01,2013-07-03 13:30:00,
2013-07-03 10:30:00,69.4,62.3,30.36,NNE,30,0.0,0.0,78,-99.99,,,0.00,VWS V14.01,2013-07-03 14:30:00,
2013-07-03 11:00:00,68.9,62.1,30.36,NE,40,0.0,2.7,79,-99.99,,,0.00,VWS V14.01,2013-07-03 15:00:00,
2013-07-03 11:30:00,68.5,62.1,30.39,NE,41,0.0,0.0,80,-99.99,,,0.00,VWS V14.01,2013-07-03 15:30:00,
2013-07-03 12:00:00,67.8,61.8,30.39,NNE,14,0.0,0.0,81,-99.99,,,0.04,VWS V14.01,2013-07-03 16:00:00,
2013-07-03 12:30:00,67.3,62.0,30.39,NNE,33,0.0,0.0,83,-99.99,,,0.31,VWS V14.01,2013-07-03 16:30:00,
2013-07-03 13:00:00,67.3,63.0,30.39,ENE,59,4.5,7.4,86,-99.99,,,0.39,VWS V14.01,2013-07-03 17:00:00,
2013-07-03 13:30:00,68.0,64.0,30.36,NE,49,0.0,7.8,87,-99.99,,,0.39,VWS V14.01,2013-07-03 17:30:00,
2013-07-03 14:00:00,67.6,64.0,30.36,NE,45,0.0,6.7,88,-99.99,,,0.43,VWS V14.01,2013-07-03 18:00:00,
2013-07-03 14:30:00,66.9,63.6,30.36,NNE,32,0.0,5.4,89,-99.99,,,0.55,VWS V14.01,2013-07-03 18:30:00,
2013-07-03 15:00:00,66.7,63.4,30.39,NNE,32,3.6,6.7,89,-99.99,,,0.67,VWS V14.01,2013-07-03 19:00:00,
2013-07-03 15:30:00,66.2,63.2,30.36,NE,45,4.9,9.6,90,-99.99,,,0.71,VWS V14.01,2013-07-03 19:30:00,
2013-07-03 16:00:00,66.0,63.0,30.36,SW,217,4.0,8.3,90,-99.99,,,0.75,VWS V14.01,2013-07-03 20:00:00,
2013-07-03 16:30:00,65.5,62.8,30.36,ESE,121,0.0,6.7,91,-99.99,,,0.83,VWS V14.01,2013-07-03 20:30:00,
2013-07-03 17:00:00,65.5,62.8,30.36,NE,35,3.1,7.4,91,-99.99,,,0.83,VWS V14.01,2013-07-03 21:00:00,
2013-07-03 17:30:00,65.7,63.0,30.33,NNE,29,5.4,7.8,91,-99.99,,,0.87,VWS V14.01,2013-07-03 21:30:00,
2013-07-03 18:00:00,65.5,62.8,30.36,NNE,33,0.0,11.2,91,-99.99,,,0.87,VWS V14.01,2013-07-03 22:00:00,
2013-07-03 19:00:00,65.1,62.7,30.36,NNE,27,0.0,7.4,92,-99.99,,,0.87,VWS V14.01,2013-07-03 23:00:00,
2013-07-03 19:30:00,64.9,62.6,30.36,SE,135,3.6,6.9,92,-99.99,,,0.87,VWS V14.01,2013-07-03 23:30:00,
2013-07-03 20:00:00,64.8,62.4,30.36,NE,52,0.0,7.8,92,-99.99,,,0.87,VWS V14.01,2013-07-04 00:00:00,
2013-07-03 20:30:00,64.4,62.0,30.36,NE,43,4.0,6.9,92,-99.99,,,0.87,VWS V14.01,2013-07-04 00:30:00,
2013-07-03 21:00:00,64.2,62.2,30.36,NNE,25,0.0,6.9,93,-99.99,,,0.87,VWS V14.01,2013-07-04 01:00:00,
2013-07-03 21:30:00,64.0,62.0,30.39,NNE,32,3.1,9.2,93,-99.99,,,0.87,VWS V14.01,2013-07-04 01:30:00,
2013-07-03 22:00:00,63.9,61.8,30.39,NE,40,4.5,7.8,93,-99.99,,,0.91,VWS V14.01,2013-07-04 02:00:00,
2013-07-03 22:30:00,63.9,61.8,30.39,NE,49,3.6,6.9,93,-99.99,,,0.91,VWS V14.01,2013-07-04 02:30:00,
2013-07-03 23:00:00,63.9,61.8,30.39,NE,47,3.1,7.4,93,-99.99,,,0.94,VWS V14.01,2013-07-04 03:00:00,
2013-07-03 23:30:00,63.9,61.8,30.39,NE,44,3.6,6.9,93,-99.99,,,0.94,VWS V14.01,2013-07-04 03:30:00,